Year,Month,Day,Hour,Minute,Value (Times are PST for temperature in C)
2009,08,15,00,00,15.90
2009,08,15,00,01,15.80
2009,08,15,00,02,15.80
2009,08,15,00,03,15.80
2009,08,15,00,04,15.80
2009,08,15,00,05,15.80
2009,08,15,00,06,15.70
2009,08,15,00,07,15.70
2009,08,15,00,08,15.70
2009,08,15,00,09,15.70
2009,08,15,00,10,15.70
2009,08,15,00,11,15.70
2009,08,15,00,12,15.70
2009,08,15,00,13,15.70
2009,08,15,00,14,15.60
2009,08,15,00,15,15.60
2009,08,15,00,16,15.60
2009,08,15,00,17,15.60
2009,08,15,00,18,15.60
2009,08,15,00,19,15.50
2009,08,15,00,20,15.50
2009,08,15,00,21,15.50
2009,08,15,00,22,15.50
2009,08,15,00,23,15.40
2009,08,15,00,24,15.40
2009,08,15,00,25,15.40
2009,08,15,00,26,15.40
2009,08,15,00,27,15.30
2009,08,15,00,28,15.30
2009,08,15,00,29,15.30
2009,08,15,00,30,15.30
2009,08,15,00,31,15.30
2009,08,15,00,32,15.30
2009,08,15,00,33,15.30
2009,08,15,00,34,15.30
2009,08,15,00,35,15.20
2009,08,15,00,36,15.20
2009,08,15,00,37,15.20
2009,08,15,00,38,15.20
2009,08,15,00,39,15.20
2009,08,15,00,40,15.20
2009,08,15,00,41,15.20
2009,08,15,00,42,15.20
2009,08,15,00,43,15.20
2009,08,15,00,44,15.30
2009,08,15,00,45,15.30
2009,08,15,00,46,15.30
2009,08,15,00,47,15.30
2009,08,15,00,48,15.30
2009,08,15,00,49,15.30
2009,08,15,00,50,15.20
2009,08,15,00,51,15.20
2009,08,15,00,52,15.20
2009,08,15,00,53,15.20
2009,08,15,00,54,15.20
2009,08,15,00,55,15.20
2009,08,15,00,56,15.20
2009,08,15,00,57,15.20
2009,08,15,00,58,15.10
2009,08,15,00,59,15.10
2009,08,15,01,00,15.10
2009,08,15,01,01,15.10
2009,08,15,01,02,15.00
2009,08,15,01,03,15.00
2009,08,15,01,04,15.00
2009,08,15,01,05,15.00
2009,08,15,01,06,15.00
2009,08,15,01,07,15.00
2009,08,15,01,08,15.00
2009,08,15,01,09,15.00
2009,08,15,01,10,15.00
2009,08,15,01,11,15.00
2009,08,15,01,12,15.00
2009,08,15,01,13,15.00
2009,08,15,01,14,15.00
2009,08,15,01,15,15.00
2009,08,15,01,16,15.00
2009,08,15,01,17,15.00
2009,08,15,01,18,14.90
2009,08,15,01,19,14.90
2009,08,15,01,20,14.80
2009,08,15,01,21,14.80
2009,08,15,01,22,14.80
2009,08,15,01,23,14.70
2009,08,15,01,24,14.70
2009,08,15,01,25,14.70
2009,08,15,01,26,14.70
2009,08,15,01,27,14.60
2009,08,15,01,28,14.60
2009,08,15,01,29,14.60
2009,08,15,01,30,14.60
2009,08,15,01,31,14.60
2009,08,15,01,32,14.60
2009,08,15,01,33,14.60
2009,08,15,01,34,14.60
2009,08,15,01,35,14.60
2009,08,15,01,36,14.50
2009,08,15,01,37,14.50
2009,08,15,01,38,14.50
2009,08,15,01,39,14.50
2009,08,15,01,40,14.50
2009,08,15,01,41,14.50
2009,08,15,01,42,14.50
2009,08,15,01,43,14.50
2009,08,15,01,44,14.40
2009,08,15,01,45,14.40
2009,08,15,01,46,14.40
2009,08,15,01,47,14.40
2009,08,15,01,48,14.40
2009,08,15,01,49,14.40
2009,08,15,01,50,14.30
2009,08,15,01,51,14.30
2009,08,15,01,52,14.30
2009,08,15,01,53,14.30
2009,08,15,01,54,14.20
2009,08,15,01,55,14.20
2009,08,15,01,56,14.20
2009,08,15,01,57,14.10
2009,08,15,01,58,14.10
2009,08,15,01,59,14.10
2009,08,15,02,00,14.00
2009,08,15,02,01,13.90
2009,08,15,02,02,13.90
2009,08,15,02,03,13.90
2009,08,15,02,04,13.80
2009,08,15,02,05,13.70
2009,08,15,02,06,13.70
2009,08,15,02,07,13.70
2009,08,15,02,08,13.60
2009,08,15,02,09,13.60
2009,08,15,02,10,13.50
2009,08,15,02,11,13.50
2009,08,15,02,12,13.40
2009,08,15,02,13,13.40
2009,08,15,02,14,13.40
2009,08,15,02,15,13.40
2009,08,15,02,16,13.40
2009,08,15,02,17,13.30
2009,08,15,02,18,13.30
2009,08,15,02,19,13.30
2009,08,15,02,20,13.30
2009,08,15,02,21,13.30
2009,08,15,02,22,13.30
2009,08,15,02,23,13.30
2009,08,15,02,24,13.20
2009,08,15,02,25,13.20
2009,08,15,02,26,13.20
2009,08,15,02,27,13.10
2009,08,15,02,28,13.10
2009,08,15,02,29,13.00
2009,08,15,02,30,13.00
2009,08,15,02,31,12.90
2009,08,15,02,32,12.90
2009,08,15,02,33,12.90
2009,08,15,02,34,12.80
2009,08,15,02,35,12.80
2009,08,15,02,36,12.80
2009,08,15,02,37,12.70
2009,08,15,02,38,12.70
2009,08,15,02,39,12.70
2009,08,15,02,40,12.70
2009,08,15,02,41,12.70
2009,08,15,02,42,12.70
2009,08,15,02,43,12.70
2009,08,15,02,44,12.60
2009,08,15,02,45,12.60
2009,08,15,02,46,12.60
2009,08,15,02,47,12.60
2009,08,15,02,48,12.50
2009,08,15,02,49,12.50
2009,08,15,02,50,12.50
2009,08,15,02,51,12.40
2009,08,15,02,52,12.40
2009,08,15,02,53,12.30
2009,08,15,02,54,12.30
2009,08,15,02,55,12.30
2009,08,15,02,56,12.30
2009,08,15,02,57,12.30
2009,08,15,02,58,12.20
2009,08,15,02,59,12.20
2009,08,15,03,00,12.20
2009,08,15,03,01,12.20
2009,08,15,03,02,12.20
2009,08,15,03,03,12.10
2009,08,15,03,04,12.10
2009,08,15,03,05,12.10
2009,08,15,03,06,12.10
2009,08,15,03,07,12.10
2009,08,15,03,08,12.10
2009,08,15,03,09,12.10
2009,08,15,03,10,12.10
2009,08,15,03,11,12.00
2009,08,15,03,12,12.00
2009,08,15,03,13,12.00
2009,08,15,03,14,12.00
2009,08,15,03,15,11.90
2009,08,15,03,16,11.90
2009,08,15,03,17,11.90
2009,08,15,03,18,11.90
2009,08,15,03,19,11.90
2009,08,15,03,20,11.90
2009,08,15,03,21,11.80
2009,08,15,03,22,11.80
2009,08,15,03,23,11.80
2009,08,15,03,24,11.80
2009,08,15,03,25,11.80
2009,08,15,03,26,11.80
2009,08,15,03,27,11.80
2009,08,15,03,28,11.80
2009,08,15,03,29,11.80
2009,08,15,03,30,11.80
2009,08,15,03,31,11.80
2009,08,15,03,32,11.80
2009,08,15,03,33,11.80
2009,08,15,03,34,11.80
2009,08,15,03,35,11.80
2009,08,15,03,36,11.80
2009,08,15,03,37,11.80
2009,08,15,03,38,11.80
2009,08,15,03,39,11.80
2009,08,15,03,40,11.80
2009,08,15,03,41,11.80
2009,08,15,03,42,11.80
2009,08,15,03,43,11.70
2009,08,15,03,44,11.70
2009,08,15,03,45,11.70
2009,08,15,03,46,11.70
2009,08,15,03,47,11.70
2009,08,15,03,48,11.70
2009,08,15,03,49,11.70
2009,08,15,03,50,11.70
2009,08,15,03,51,11.70
2009,08,15,03,52,11.70
2009,08,15,03,53,11.70
2009,08,15,03,54,11.70
2009,08,15,03,55,11.70
2009,08,15,03,56,11.70
2009,08,15,03,57,11.70
2009,08,15,03,58,11.70
2009,08,15,03,59,11.70
2009,08,15,04,00,11.70
2009,08,15,04,01,11.70
2009,08,15,04,02,11.70
2009,08,15,04,03,11.70
2009,08,15,04,04,11.70
2009,08,15,04,05,11.70
2009,08,15,04,06,11.70
2009,08,15,04,07,11.70
2009,08,15,04,08,11.70
2009,08,15,04,09,11.70
2009,08,15,04,10,11.70
2009,08,15,04,11,11.70
2009,08,15,04,12,11.80
2009,08,15,04,13,11.80
2009,08,15,04,14,11.80
2009,08,15,04,15,11.80
2009,08,15,04,16,11.80
2009,08,15,04,17,11.90
2009,08,15,04,18,11.90
2009,08,15,04,19,11.90
2009,08,15,04,20,11.90
2009,08,15,04,21,11.90
2009,08,15,04,22,11.90
2009,08,15,04,23,11.90
2009,08,15,04,24,11.90
2009,08,15,04,25,11.90
2009,08,15,04,26,11.90
2009,08,15,04,27,11.90
2009,08,15,04,28,11.90
2009,08,15,04,29,11.90
2009,08,15,04,30,11.90
2009,08,15,04,31,11.90
2009,08,15,04,32,11.90
2009,08,15,04,33,11.90
2009,08,15,04,34,11.90
2009,08,15,04,35,11.90
2009,08,15,04,36,11.90
2009,08,15,04,37,11.90
2009,08,15,04,38,11.90
2009,08,15,04,39,11.90
2009,08,15,04,40,11.90
2009,08,15,04,41,12.00
2009,08,15,04,42,12.00
2009,08,15,04,43,12.00
2009,08,15,04,44,12.00
2009,08,15,04,45,12.00
2009,08,15,04,46,12.10
2009,08,15,04,47,12.10
2009,08,15,04,48,12.10
2009,08,15,04,49,12.10
2009,08,15,04,50,12.10
2009,08,15,04,51,12.10
2009,08,15,04,52,12.10
2009,08,15,04,53,12.10
2009,08,15,04,54,12.10
2009,08,15,04,55,12.10
2009,08,15,04,56,12.10
2009,08,15,04,57,12.10
2009,08,15,04,58,12.20
2009,08,15,04,59,12.20
2009,08,15,05,00,12.20
2009,08,15,05,01,12.20
2009,08,15,05,02,12.20
2009,08,15,05,03,12.20
2009,08,15,05,04,12.20
2009,08,15,05,05,12.20
2009,08,15,05,06,12.20
2009,08,15,05,07,12.20
2009,08,15,05,08,12.20
2009,08,15,05,09,12.20
2009,08,15,05,10,12.20
2009,08,15,05,11,12.20
2009,08,15,05,12,12.20
2009,08,15,05,13,12.20
2009,08,15,05,14,12.30
2009,08,15,05,15,12.30
2009,08,15,05,16,12.30
2009,08,15,05,17,12.30
2009,08,15,05,18,12.30
2009,08,15,05,19,12.30
2009,08,15,05,20,12.30
2009,08,15,05,21,12.30
2009,08,15,05,22,12.30
2009,08,15,05,23,12.30
2009,08,15,05,24,12.30
2009,08,15,05,25,12.30
2009,08,15,05,26,12.30
2009,08,15,05,27,12.30
2009,08,15,05,28,12.30
2009,08,15,05,29,12.30
2009,08,15,05,30,12.30
2009,08,15,05,31,12.30
2009,08,15,05,32,12.30
2009,08,15,05,33,12.30
2009,08,15,05,34,12.30
2009,08,15,05,35,12.30
2009,08,15,05,36,12.30
2009,08,15,05,37,12.30
2009,08,15,05,38,12.30
2009,08,15,05,39,12.30
2009,08,15,05,40,12.30
2009,08,15,05,41,12.30
2009,08,15,05,42,12.30
2009,08,15,05,43,12.30
2009,08,15,05,44,12.30
2009,08,15,05,45,12.30
2009,08,15,05,46,12.30
2009,08,15,05,47,12.30
2009,08,15,05,48,12.30
2009,08,15,05,49,12.30
2009,08,15,05,50,12.30
2009,08,15,05,51,12.30
2009,08,15,05,52,12.30
2009,08,15,05,53,12.30
2009,08,15,05,54,12.30
2009,08,15,05,55,12.30
2009,08,15,05,56,12.30
2009,08,15,05,57,12.30
2009,08,15,05,58,12.30
2009,08,15,05,59,12.30
2009,08,15,06,00,12.30
2009,08,15,06,01,12.30
2009,08,15,06,02,12.30
2009,08,15,06,03,12.30
2009,08,15,06,04,12.40
2009,08,15,06,05,12.40
2009,08,15,06,06,12.40
2009,08,15,06,07,12.40
2009,08,15,06,08,12.40
2009,08,15,06,09,12.40
2009,08,15,06,10,12.40
2009,08,15,06,11,12.40
2009,08,15,06,12,12.40
2009,08,15,06,13,12.40
2009,08,15,06,14,12.40
2009,08,15,06,15,12.40
2009,08,15,06,16,12.40
2009,08,15,06,17,12.40
2009,08,15,06,18,12.40
2009,08,15,06,19,12.40
2009,08,15,06,20,12.40
2009,08,15,06,21,12.40
2009,08,15,06,22,12.40
2009,08,15,06,23,12.40
2009,08,15,06,24,12.50
2009,08,15,06,25,12.50
2009,08,15,06,26,12.50
2009,08,15,06,27,12.50
2009,08,15,06,28,12.50
2009,08,15,06,29,12.50
2009,08,15,06,30,12.50
2009,08,15,06,31,12.50
2009,08,15,06,32,12.50
2009,08,15,06,33,12.50
2009,08,15,06,34,12.50
2009,08,15,06,35,12.50
2009,08,15,06,36,12.50
2009,08,15,06,37,12.50
2009,08,15,06,38,12.50
2009,08,15,06,39,12.50
2009,08,15,06,40,12.60
2009,08,15,06,41,12.60
2009,08,15,06,42,12.60
2009,08,15,06,43,12.60
2009,08,15,06,44,12.60
2009,08,15,06,45,12.60
2009,08,15,06,46,12.60
2009,08,15,06,47,12.60
2009,08,15,06,48,12.60
2009,08,15,06,49,12.60
2009,08,15,06,50,12.60
2009,08,15,06,51,12.70
2009,08,15,06,52,12.70
2009,08,15,06,53,12.70
2009,08,15,06,54,12.70
2009,08,15,06,55,12.70
2009,08,15,06,56,12.70
2009,08,15,06,57,12.70
2009,08,15,06,58,12.70
2009,08,15,06,59,12.70
2009,08,15,07,00,12.70
2009,08,15,07,01,12.70
2009,08,15,07,02,12.70
2009,08,15,07,03,12.70
2009,08,15,07,04,12.80
2009,08,15,07,05,12.80
2009,08,15,07,06,12.80
2009,08,15,07,07,12.80
2009,08,15,07,08,12.80
2009,08,15,07,09,12.80
2009,08,15,07,10,12.80
2009,08,15,07,11,12.80
2009,08,15,07,12,12.80
2009,08,15,07,13,12.80
2009,08,15,07,14,12.80
2009,08,15,07,15,12.80
2009,08,15,07,16,12.80
2009,08,15,07,17,12.80
2009,08,15,07,18,12.90
2009,08,15,07,19,12.90
2009,08,15,07,20,12.90
2009,08,15,07,21,12.90
2009,08,15,07,22,12.90
2009,08,15,07,23,12.90
2009,08,15,07,24,13.00
2009,08,15,07,25,13.00
2009,08,15,07,26,13.00
2009,08,15,07,27,13.00
2009,08,15,07,28,13.00
2009,08,15,07,29,13.10
2009,08,15,07,30,13.10
2009,08,15,07,31,13.10
2009,08,15,07,32,13.20
2009,08,15,07,33,13.20
2009,08,15,07,34,13.30
2009,08,15,07,35,13.30
2009,08,15,07,36,13.30
2009,08,15,07,37,13.30
2009,08,15,07,38,13.30
2009,08,15,07,39,13.40
2009,08,15,07,40,13.40
2009,08,15,07,41,13.40
2009,08,15,07,42,13.40
2009,08,15,07,43,13.40
2009,08,15,07,44,13.40
2009,08,15,07,45,13.40
2009,08,15,07,46,13.40
2009,08,15,07,47,13.40
2009,08,15,07,48,13.40
2009,08,15,07,49,13.50
2009,08,15,07,50,13.50
2009,08,15,07,51,13.50
2009,08,15,07,52,13.60
2009,08,15,07,53,13.60
2009,08,15,07,54,13.60
2009,08,15,07,55,13.60
2009,08,15,07,56,13.60
2009,08,15,07,57,13.60
2009,08,15,07,58,13.70
2009,08,15,07,59,13.70
2009,08,15,08,00,13.70
2009,08,15,08,01,13.70
2009,08,15,08,02,13.70
2009,08,15,08,03,13.80
2009,08,15,08,04,13.80
2009,08,15,08,05,13.80
2009,08,15,08,06,13.80
2009,08,15,08,07,13.90
2009,08,15,08,08,13.90
2009,08,15,08,09,14.00
2009,08,15,08,10,14.00
2009,08,15,08,11,14.10
2009,08,15,08,12,14.10
2009,08,15,08,13,14.10
2009,08,15,08,14,14.20
2009,08,15,08,15,14.20
2009,08,15,08,16,14.30
2009,08,15,08,17,14.30
2009,08,15,08,18,14.30
2009,08,15,08,19,14.30
2009,08,15,08,20,14.30
2009,08,15,08,21,14.30
2009,08,15,08,22,14.40
2009,08,15,08,23,14.40
2009,08,15,08,24,14.40
2009,08,15,08,25,14.40
2009,08,15,08,26,14.40
2009,08,15,08,27,14.40
2009,08,15,08,28,14.50
2009,08,15,08,29,14.50
2009,08,15,08,30,14.50
2009,08,15,08,31,14.50
2009,08,15,08,32,14.60
2009,08,15,08,33,14.60
2009,08,15,08,34,14.60
2009,08,15,08,35,14.70
2009,08,15,08,36,14.70
2009,08,15,08,37,14.70
2009,08,15,08,38,14.70
2009,08,15,08,39,14.70
2009,08,15,08,40,14.80
2009,08,15,08,41,14.80
2009,08,15,08,42,14.80
2009,08,15,08,43,14.80
2009,08,15,08,44,14.80
2009,08,15,08,45,14.80
2009,08,15,08,46,14.80
2009,08,15,08,47,14.80
2009,08,15,08,48,14.90
2009,08,15,08,49,14.90
2009,08,15,08,50,15.00
2009,08,15,08,51,15.00
2009,08,15,08,52,15.00
2009,08,15,08,53,15.00
2009,08,15,08,54,15.00
2009,08,15,08,55,15.00
2009,08,15,08,56,15.00
2009,08,15,08,57,15.10
2009,08,15,08,58,15.10
2009,08,15,08,59,15.20
2009,08,15,09,00,15.30
2009,08,15,09,01,15.30
2009,08,15,09,02,15.40
2009,08,15,09,03,15.40
2009,08,15,09,04,15.40
2009,08,15,09,05,15.40
2009,08,15,09,06,15.50
2009,08,15,09,07,15.50
2009,08,15,09,08,15.50
2009,08,15,09,09,15.50
2009,08,15,09,10,15.60
2009,08,15,09,11,15.60
2009,08,15,09,12,15.60
2009,08,15,09,13,15.70
2009,08,15,09,14,15.70
2009,08,15,09,15,15.70
2009,08,15,09,16,15.70
2009,08,15,09,17,15.70
2009,08,15,09,18,15.70
2009,08,15,09,19,15.70
2009,08,15,09,20,15.70
2009,08,15,09,21,15.70
2009,08,15,09,22,15.70
2009,08,15,09,23,15.70
2009,08,15,09,24,15.70
2009,08,15,09,25,15.80
2009,08,15,09,26,15.80
2009,08,15,09,27,15.80
2009,08,15,09,28,15.80
2009,08,15,09,29,15.80
2009,08,15,09,30,15.80
2009,08,15,09,31,15.80
2009,08,15,09,32,15.80
2009,08,15,09,33,15.80
2009,08,15,09,34,15.80
2009,08,15,09,35,15.90
2009,08,15,09,36,15.90
2009,08,15,09,37,15.90
2009,08,15,09,38,15.90
2009,08,15,09,39,15.90
2009,08,15,09,40,16.00
2009,08,15,09,41,16.00
2009,08,15,09,42,16.00
2009,08,15,09,43,16.00
2009,08,15,09,44,16.00
2009,08,15,09,45,16.00
2009,08,15,09,46,16.10
2009,08,15,09,47,16.10
2009,08,15,09,48,16.10
2009,08,15,09,49,16.10
2009,08,15,09,50,16.10
2009,08,15,09,51,16.20
2009,08,15,09,52,16.20
2009,08,15,09,53,16.20
2009,08,15,09,54,16.30
2009,08,15,09,55,16.30
2009,08,15,09,56,16.30
2009,08,15,09,57,16.30
2009,08,15,09,58,16.40
2009,08,15,09,59,16.40
2009,08,15,10,00,16.40
2009,08,15,10,01,16.50
2009,08,15,10,02,16.50
2009,08,15,10,03,16.50
2009,08,15,10,04,16.50
2009,08,15,10,05,16.50
2009,08,15,10,06,16.50
2009,08,15,10,07,16.60
2009,08,15,10,08,16.60
2009,08,15,10,09,16.70
2009,08,15,10,10,16.70
2009,08,15,10,11,16.80
2009,08,15,10,12,16.80
2009,08,15,10,13,16.80
2009,08,15,10,14,16.90
2009,08,15,10,15,16.90
2009,08,15,10,16,17.00
2009,08,15,10,17,17.00
2009,08,15,10,18,17.00
2009,08,15,10,19,16.90
2009,08,15,10,20,16.90
2009,08,15,10,21,16.90
2009,08,15,10,22,16.90
2009,08,15,10,23,16.90
2009,08,15,10,24,16.90
2009,08,15,10,25,16.90
2009,08,15,10,26,16.90
2009,08,15,10,27,16.90
2009,08,15,10,28,16.90
2009,08,15,10,29,16.90
2009,08,15,10,30,16.90
2009,08,15,10,31,16.80
2009,08,15,10,32,16.80
2009,08,15,10,33,16.70
2009,08,15,10,34,16.70
2009,08,15,10,35,16.70
2009,08,15,10,36,16.70
2009,08,15,10,37,16.70
2009,08,15,10,38,16.70
2009,08,15,10,39,16.70
2009,08,15,10,40,16.70
2009,08,15,10,41,16.80
2009,08,15,10,42,16.80
2009,08,15,10,43,16.80
2009,08,15,10,44,16.90
2009,08,15,10,45,16.90
2009,08,15,10,46,16.90
2009,08,15,10,47,17.00
2009,08,15,10,48,17.10
2009,08,15,10,49,17.10
2009,08,15,10,50,17.10
2009,08,15,10,51,17.10
2009,08,15,10,52,17.20
2009,08,15,10,53,17.30
2009,08,15,10,54,17.30
2009,08,15,10,55,17.30
2009,08,15,10,56,17.30
2009,08,15,10,57,17.30
2009,08,15,10,58,17.30
2009,08,15,10,59,17.40
2009,08,15,11,00,17.30
2009,08,15,11,01,17.30
2009,08,15,11,02,17.30
2009,08,15,11,03,17.30
2009,08,15,11,04,17.30
2009,08,15,11,05,17.30
2009,08,15,11,06,17.30
2009,08,15,11,07,17.30
2009,08,15,11,08,17.30
2009,08,15,11,09,17.30
2009,08,15,11,10,17.30
2009,08,15,11,11,17.30
2009,08,15,11,12,17.40
2009,08,15,11,13,17.40
2009,08,15,11,14,17.40
2009,08,15,11,15,17.40
2009,08,15,11,16,17.40
2009,08,15,11,17,17.40
2009,08,15,11,18,17.40
2009,08,15,11,19,17.50
2009,08,15,11,20,17.50
2009,08,15,11,21,17.50
2009,08,15,11,22,17.50
2009,08,15,11,23,17.60
2009,08,15,11,24,17.70
2009,08,15,11,25,17.70
2009,08,15,11,26,17.80
2009,08,15,11,27,17.90
2009,08,15,11,28,18.00
2009,08,15,11,29,18.00
2009,08,15,11,30,18.10
2009,08,15,11,31,18.20
2009,08,15,11,32,18.20
2009,08,15,11,33,18.20
2009,08,15,11,34,18.20
2009,08,15,11,35,18.20
2009,08,15,11,36,18.10
2009,08,15,11,37,18.00
2009,08,15,11,38,17.90
2009,08,15,11,39,17.80
2009,08,15,11,40,17.90
2009,08,15,11,41,17.90
2009,08,15,11,42,17.90
2009,08,15,11,43,17.90
2009,08,15,11,44,17.90
2009,08,15,11,45,17.90
2009,08,15,11,46,17.90
2009,08,15,11,47,18.00
2009,08,15,11,48,18.10
2009,08,15,11,49,18.20
2009,08,15,11,50,18.20
2009,08,15,11,51,18.20
2009,08,15,11,52,18.30
2009,08,15,11,53,18.30
2009,08,15,11,54,18.40
2009,08,15,11,55,18.40
2009,08,15,11,56,18.50
2009,08,15,11,57,18.50
2009,08,15,11,58,18.40
2009,08,15,11,59,18.40
2009,08,15,12,00,18.30
2009,08,15,12,01,18.30
2009,08,15,12,02,18.30
2009,08,15,12,03,18.30
2009,08,15,12,04,18.30
2009,08,15,12,05,18.30
2009,08,15,12,06,18.40
2009,08,15,12,07,18.50
2009,08,15,12,08,18.60
2009,08,15,12,09,18.70
2009,08,15,12,10,18.70
2009,08,15,12,11,18.70
2009,08,15,12,12,18.70
2009,08,15,12,13,18.80
2009,08,15,12,14,18.90
2009,08,15,12,15,18.90
2009,08,15,12,16,19.00
2009,08,15,12,17,19.10
2009,08,15,12,18,19.20
2009,08,15,12,19,19.30
2009,08,15,12,20,19.30
2009,08,15,12,21,19.30
2009,08,15,12,22,19.30
2009,08,15,12,23,19.30
2009,08,15,12,24,19.30
2009,08,15,12,25,19.20
2009,08,15,12,26,19.20
2009,08,15,12,27,19.10
2009,08,15,12,28,19.10
2009,08,15,12,29,19.00
2009,08,15,12,30,19.00
2009,08,15,12,31,19.00
2009,08,15,12,32,19.00
2009,08,15,12,33,19.00
2009,08,15,12,34,19.00
2009,08,15,12,35,19.00
2009,08,15,12,36,19.00
2009,08,15,12,37,19.00
2009,08,15,12,38,19.10
2009,08,15,12,39,19.10
2009,08,15,12,40,19.10
2009,08,15,12,41,19.20
2009,08,15,12,42,19.20
2009,08,15,12,43,19.20
2009,08,15,12,44,19.20
2009,08,15,12,45,19.20
2009,08,15,12,46,19.20
2009,08,15,12,47,19.30
2009,08,15,12,48,19.30
2009,08,15,12,49,19.30
2009,08,15,12,50,19.40
2009,08,15,12,51,19.40
2009,08,15,12,52,19.30
2009,08,15,12,53,19.40
2009,08,15,12,54,19.40
2009,08,15,12,55,19.50
2009,08,15,12,56,19.50
2009,08,15,12,57,19.40
2009,08,15,12,58,19.40
2009,08,15,12,59,19.30
2009,08,15,13,00,19.30
2009,08,15,13,01,19.30
2009,08,15,13,02,19.40
2009,08,15,13,03,19.50
2009,08,15,13,04,19.70
2009,08,15,13,05,19.80
2009,08,15,13,06,19.80
2009,08,15,13,07,19.70
2009,08,15,13,08,19.60
2009,08,15,13,09,19.60
2009,08,15,13,10,19.50
2009,08,15,13,11,19.50
2009,08,15,13,12,19.60
2009,08,15,13,13,19.50
2009,08,15,13,14,19.50
2009,08,15,13,15,19.40
2009,08,15,13,16,19.40
2009,08,15,13,17,19.40
2009,08,15,13,18,19.40
2009,08,15,13,19,19.30
2009,08,15,13,20,19.40
2009,08,15,13,21,19.50
2009,08,15,13,22,19.50
2009,08,15,13,23,19.40
2009,08,15,13,24,19.30
2009,08,15,13,25,19.30
2009,08,15,13,26,19.30
2009,08,15,13,27,19.30
2009,08,15,13,28,19.30
2009,08,15,13,29,19.30
2009,08,15,13,30,19.30
2009,08,15,13,31,19.30
2009,08,15,13,32,19.50
2009,08,15,13,33,19.50
2009,08,15,13,34,19.60
2009,08,15,13,35,19.50
2009,08,15,13,36,19.50
2009,08,15,13,37,19.40
2009,08,15,13,38,19.30
2009,08,15,13,39,19.30
2009,08,15,13,40,19.30
2009,08,15,13,41,19.30
2009,08,15,13,42,19.30
2009,08,15,13,43,19.20
2009,08,15,13,44,19.10
2009,08,15,13,45,19.10
2009,08,15,13,46,19.20
2009,08,15,13,47,19.10
2009,08,15,13,48,19.10
2009,08,15,13,49,19.20
2009,08,15,13,50,19.20
2009,08,15,13,51,19.30
2009,08,15,13,52,19.30
2009,08,15,13,53,19.30
2009,08,15,13,54,19.30
2009,08,15,13,55,19.30
2009,08,15,13,56,19.20
2009,08,15,13,57,19.20
2009,08,15,13,58,19.20
2009,08,15,13,59,19.30
2009,08,15,14,00,19.40
2009,08,15,14,01,19.40
2009,08,15,14,02,19.50
2009,08,15,14,03,19.60
2009,08,15,14,04,19.60
2009,08,15,14,05,19.60
2009,08,15,14,06,19.60
2009,08,15,14,07,19.60
2009,08,15,14,08,19.60
2009,08,15,14,09,19.40
2009,08,15,14,10,19.30
2009,08,15,14,11,19.30
2009,08,15,14,12,19.30
2009,08,15,14,13,19.30
2009,08,15,14,14,19.40
2009,08,15,14,15,19.40
2009,08,15,14,16,19.40
2009,08,15,14,17,19.40
2009,08,15,14,18,19.40
2009,08,15,14,19,19.40
2009,08,15,14,20,19.40
2009,08,15,14,21,19.30
2009,08,15,14,22,19.30
2009,08,15,14,23,19.20
2009,08,15,14,24,19.20
2009,08,15,14,25,19.10
2009,08,15,14,26,19.10
2009,08,15,14,27,19.10
2009,08,15,14,28,19.00
2009,08,15,14,29,19.00
2009,08,15,14,30,18.90
2009,08,15,14,31,18.90
2009,08,15,14,32,18.80
2009,08,15,14,33,18.70
2009,08,15,14,34,18.70
2009,08,15,14,35,18.70
2009,08,15,14,36,18.70
2009,08,15,14,37,18.80
2009,08,15,14,38,18.80
2009,08,15,14,39,18.80
2009,08,15,14,40,18.80
2009,08,15,14,41,18.80
2009,08,15,14,42,18.70
2009,08,15,14,43,18.70
2009,08,15,14,44,18.60
2009,08,15,14,45,18.60
2009,08,15,14,46,18.50
2009,08,15,14,47,18.50
2009,08,15,14,48,18.50
2009,08,15,14,49,18.50
2009,08,15,14,50,18.40
2009,08,15,14,51,18.40
2009,08,15,14,52,18.40
2009,08,15,14,53,18.50
2009,08,15,14,54,18.50
2009,08,15,14,55,18.60
2009,08,15,14,56,18.70
2009,08,15,14,57,18.60
2009,08,15,14,58,18.50
2009,08,15,14,59,18.40
2009,08,15,15,00,18.30
2009,08,15,15,01,18.20
2009,08,15,15,02,18.10
2009,08,15,15,03,18.10
2009,08,15,15,04,18.10
2009,08,15,15,05,18.10
2009,08,15,15,06,18.10
2009,08,15,15,07,18.10
2009,08,15,15,08,18.10
2009,08,15,15,09,18.10
2009,08,15,15,10,18.10
2009,08,15,15,11,18.10
2009,08,15,15,12,18.10
2009,08,15,15,13,18.10
2009,08,15,15,14,18.10
2009,08,15,15,15,18.10
2009,08,15,15,16,18.10
2009,08,15,15,17,18.20
2009,08,15,15,18,18.10
2009,08,15,15,19,18.20
2009,08,15,15,20,18.10
2009,08,15,15,21,18.10
2009,08,15,15,22,18.10
2009,08,15,15,23,18.10
2009,08,15,15,24,18.00
2009,08,15,15,25,18.00
2009,08,15,15,26,18.00
2009,08,15,15,27,18.00
2009,08,15,15,28,18.00
2009,08,15,15,29,18.00
2009,08,15,15,30,18.00
2009,08,15,15,31,18.00
2009,08,15,15,32,17.90
2009,08,15,15,33,17.80
2009,08,15,15,34,17.80
2009,08,15,15,35,17.90
2009,08,15,15,36,17.80
2009,08,15,15,37,17.80
2009,08,15,15,38,17.70
2009,08,15,15,39,17.70
2009,08,15,15,40,17.70
2009,08,15,15,41,17.70
2009,08,15,15,42,17.60
2009,08,15,15,43,17.60
2009,08,15,15,44,17.60
2009,08,15,15,45,17.60
2009,08,15,15,46,17.60
2009,08,15,15,47,17.60
2009,08,15,15,48,17.50
2009,08,15,15,49,17.60
2009,08,15,15,50,17.60
2009,08,15,15,51,17.50
2009,08,15,15,52,17.50
2009,08,15,15,53,17.50
2009,08,15,15,54,17.50
2009,08,15,15,55,17.50
2009,08,15,15,56,17.40
2009,08,15,15,57,17.40
2009,08,15,15,58,17.40
2009,08,15,15,59,17.40
2009,08,15,16,00,17.40
2009,08,15,16,01,17.40
2009,08,15,16,02,17.40
2009,08,15,16,03,17.40
2009,08,15,16,04,17.40
2009,08,15,16,05,17.40
2009,08,15,16,06,17.40
2009,08,15,16,07,17.30
2009,08,15,16,08,17.40
2009,08,15,16,09,17.40
2009,08,15,16,10,17.40
2009,08,15,16,11,17.40
2009,08,15,16,12,17.40
2009,08,15,16,13,17.40
2009,08,15,16,14,17.30
2009,08,15,16,15,17.30
2009,08,15,16,16,17.30
2009,08,15,16,17,17.30
2009,08,15,16,18,17.30
2009,08,15,16,19,17.30
2009,08,15,16,20,17.30
2009,08,15,16,21,17.30
2009,08,15,16,22,17.30
2009,08,15,16,23,17.20
2009,08,15,16,24,17.20
2009,08,15,16,25,17.20
2009,08,15,16,26,17.20
2009,08,15,16,27,17.20
2009,08,15,16,28,17.20
2009,08,15,16,29,17.20
2009,08,15,16,30,17.20
2009,08,15,16,31,17.20
2009,08,15,16,32,17.30
2009,08,15,16,33,17.30
2009,08,15,16,34,17.30
2009,08,15,16,35,17.30
2009,08,15,16,36,17.30
2009,08,15,16,37,17.30
2009,08,15,16,38,17.30
2009,08,15,16,39,17.30
2009,08,15,16,40,17.30
2009,08,15,16,41,17.30
2009,08,15,16,42,17.30
2009,08,15,16,43,17.20
2009,08,15,16,44,17.20
2009,08,15,16,45,17.20
2009,08,15,16,46,17.20
2009,08,15,16,47,17.20
2009,08,15,16,48,17.20
2009,08,15,16,49,17.20
2009,08,15,16,50,17.20
2009,08,15,16,51,17.20
2009,08,15,16,52,17.20
2009,08,15,16,53,17.20
2009,08,15,16,54,17.20
2009,08,15,16,55,17.20
2009,08,15,16,56,17.20
2009,08,15,16,57,17.20
2009,08,15,16,58,17.20
2009,08,15,16,59,17.20
2009,08,15,17,00,17.20
2009,08,15,17,01,17.20
2009,08,15,17,02,17.20
2009,08,15,17,03,17.20
2009,08,15,17,04,17.20
2009,08,15,17,05,17.20
2009,08,15,17,06,17.20
2009,08,15,17,07,17.20
2009,08,15,17,08,17.20
2009,08,15,17,09,17.20
2009,08,15,17,10,17.20
2009,08,15,17,11,17.20
2009,08,15,17,12,17.20
2009,08,15,17,13,17.20
2009,08,15,17,14,17.20
2009,08,15,17,15,17.20
2009,08,15,17,16,17.20
2009,08,15,17,17,17.20
2009,08,15,17,18,17.20
2009,08,15,17,19,17.20